Regional Weather Roundup
Issued by NWS Charleston, SC

Current Version | Previous Version | Text Only | Print | Product List | Glossary Off
Versions: 1 2 3 4 5 6 7 8 9 10 11 12 13 14 15 16 17 18 19 20 21 22 23 24 25 26 27 28 29 30 31 32 33 34 35 36 37 38 39 40 41 42 43 44 45 46 47 48 49 50

000
ASUS42 KCHS 071612
RWRCHS

REGIONAL WEATHER ROUNDUP
NATIONAL WEATHER SERVICE CHARLESTON SC
1100 AM EST SUN FEB 07 2016

NOTE: "FAIR" INDICATES FEW OR NO CLOUDS BELOW 12,000 FEET WITH NO
SIGNIFICANT WEATHER AND/OR OBSTRUCTIONS TO VISIBILITY.

NOT ALL STATIONS ARE QUALITY CONTROLLED BY THE NATIONAL
WEATHER SERVICE. USE DATA WITH CAUTION...ESPECIALLY
DEWPOINT OBSERVATIONS.

NOTICE: OBSERVATIONS FOR THE SAVANNAH-HILTON HEAD INTERNATIONAL AIRPORT
/KSAV/ HAVE BEEN TEMPORARILY REMOVED DUE TO AN ERRONEOUS TEMPERATURE
SENSOR. THE OBSERVATION WILL BE REINTRODUCED ONCE REPAIRS ARE COMPLETE.

SCZ027-030-031-034>040-042>050-071700-
...SOUTHEAST SOUTH CAROLINA...

CITY           SKY/WX    TMP DP  RH WIND       PRES   REMARKS
N CHARLESTON   LGT RAIN  40  35  83 N22G28    29.96S WCI  30
WATERFRONT PRK   N/A     40  39  97 N10       29.80S WCI  33
MOUNT PLEASANT CLOUDY    41  39  93 NW12G20   29.96S
JOHNS ISLAND   LGT RAIN  39  37  93 NW14      29.95F WCI  31
PINOPOLIS        N/A     41  36  81 N22       29.91R
MONCKS CORNER  CLOUDY    37  30  75 N16G24    29.98F WCI  28
SUMMERVILLE    CLOUDY    41  34  75 N10G17    29.99F
BEAUFORT MCAS  CLOUDY    43  34  70 NW14G21   30.00S
BEAUFORT ARPT  CLOUDY    41  34  75 N12       29.99S HAZE
HILTON HEAD IS CLOUDY    43  36  75 N12G25    30.01R
WALTERBORO     PTSUNNY   45  36  70 N10G17    30.00F
ALLENDALE      CLOUDY    46  27  46 N13G22    30.03S

...SOUTHERN MIDLANDS AND PEE DEE...

CITY           SKY/WX    TMP DP  RH WIND       PRES   REMARKS
GEORGETOWN     NOT AVBL
KINGSTREE      NOT AVBL
ORANGEBURG     CLOUDY    45  25  45 N10       30.03S
BARNWELL       CLOUDY    46  28  49 NW10G16   30.06S
AIKEN          FAIR      43  23  45 N14       30.10S
MANNING        PTSUNNY   41  28  60 N13G23    30.00R
COLUMBIA       CLOUDY    45  22  40 NW8       30.06S
SUMTER         CLOUDY    43  24  46 N15       29.99F
FLORENCE       CLOUDY    40  27  59 N22G29    30.00R WCI  30
MYRTLE BEACH   NOT AVBL
N MYRTLE BEACH RAIN      37  34  89 N20G25    29.86F WCI  27

$$

GAZ063-065-086>088-099>101-113>116-118-119-134>141-150-071700-
...SOUTHEAST GEORGIA...

CITY           SKY/WX    TMP DP  RH WIND       PRES   REMARKS
SAVANNAH ARPT  CLOUDY    44  31  60 N17G26    30.02F
HUNTER AAF     CLOUDY    43  34  69 NW15      29.99F
FORT STEWART   CLOUDY    45  33  63 NW17      30.02S
STATESBORO     CLOUDY    49  25  38 N10G16    30.06S
SYLVANIA       CLOUDY    46  32  58 N12       30.06S
CLAXTON        CLOUDY    47  35  62 NW9G16    30.07S

...CSRA...CENTRAL AND FAR SOUTHEAST GEORGIA...

CITY           SKY/WX    TMP DP  RH WIND       PRES   REMARKS
THOMSON        SUNNY     52  30  42 N13G20    30.15F
AUGUSTA-BUSH   PTSUNNY   48  24  39 N20       30.09F
AUGUSTA-DANIEL MOSUNNY   47  23  38 N13       30.09F
SWAINSBORO     FAIR      46  25  42 N8        30.10F
VIDALIA        SUNNY     50  25  37 N16G23    30.09S
EASTMAN        FAIR      51  22  32 N10       30.15F
HAZLEHURST     FAIR      51  23  33 N18       30.10S
ALMA           SUNNY     49  26  41 NW16G24   30.09R
WAYCROSS       SUNNY     52  34  50 N16G24    30.09S
JESUP          CLOUDY    50  36  57 N10G21    30.07R
BAXLEY         FAIR      50  25  37 N13G20    30.08S
BRUNSWICK      PTSUNNY   45  34  65 NW12G20   30.05R
SAINT SIMONS   CLOUDY    44  36  73 NW14G21   30.03S

$$

SCZ027-028-034-036>038-045-046-048>050-GAZ119-141-071700-
...LAKE AND SUPPLEMENTAL COASTAL OBSERVATIONS...

STATION/POSITION TIME  TEMP    WIND        PRES    WAVE   SWELL
                       AIR SEA DIR/SP/G            HT/PER HT/PER/DIR
                 (UTC) (F)     (DEG/KT/KT) (MB)    (FT/S) (FT/S/D)
WINYAH BAY       1445   38     350/ 10     1011.0
LAKE MURRAY      1500   42     350/  3/  8 1017.9R
ACE BASIN NERRS  NOT AVBL
FORT PULASKI     1500   41 53  330/ 15/ 18 1016.1R
SAPELO ISLAND    1500   42     350/ 15     1016.0S

$$

ANZ835-935-AMZ111-154-330-350-352-354-370-450-454-472-071700-
...C-MAN AND BUOY OBSERVATIONS...

STATION/POSITION TIME  TEMP    WIND        PRES    WAVE   SWELL
                       AIR SEA DIR/SP/G            HT/PER HT/PER/DIR
                 (UTC) (F)     (DEG/KT/KT) (MB)    (FT/S) (FT/S/D)
BUOY 41004       1550   48 66  350/ 23/ 27 1011.2R  12/ 9   7/ 9
BUOY 41008       1550   44 56  350/ 23/ 29 1015.2R   6/ 7   3/ 70/ 9
FOLLY BEACH CMAN 1600   40     330/ 10/ 14 1013.9S
CAPERS NEARSHORE 1508   42     350/ 17/ 23 1012.7R
FRIPP NEARSHORE  1500   43     340/ 21/ 27 1014.9R


STATION/POSITION TIME  TEMP    WIND        PRES    WAVE   SWELL
                       AIR SEA DIR/SP/G            HT/PER HT/PER/DIR
                 (UTC) (F)     (DEG/KT/KT) (MB)    (FT/S) (FT/S/D)
5E ST. MARYS GA  1521      56                N/A     6/ 8   2/100/12
FRYING PAN BUOY  1500   50 67  360/ 35/ 45 1006.5F
BUOY 41025       1550   56 70   30/ 35/ 43 1008.9F  10/ 7   3/ 90/11
CAPE LOOKOUT NC  NOT AVBL
BUOY 41002       1550   69 69  210/ 27/ 35   N/A     9/ 7   3/ 60/11
BUOY 41010       1520   67 74              1007.5R
ST AUGUSTINE FL  1600   44 57  300/ 14/ 19 1017.7S


$$



USA.gov is the U.S. government's official web portal to all federal, state and local government web resources and services.